EDV5300 KATL-KCAE

Flight info

Callsign EDV5300
Flight time 0h 37m
Altitude 17000
Route GAIRY2 GAIRY KISTN CAE
Aircraft CRJ9/M-SDFGIRWY/S

Departure

Time 2026-05-07 04:15
Airport Hartsfield Jackson Atlanta International Airport (KATL)

Arrival

Time 2026-05-07 04:53
Airport Columbia Metropolitan Airport (KCAE)
Time Latitude Longitude Altitude Speed Heading
2026-05-07 03:55 33.64125 -84.43196 1005 ft 0 kts 283°
2026-05-07 04:02 33.64125 -84.43194 1005 ft 2 kts 283°
2026-05-07 04:03 33.64122 -84.43179 1005 ft 2 kts 283°
2026-05-07 04:03 33.64119 -84.43165 1005 ft 2 kts 283°
2026-05-07 04:03 33.64118 -84.43153 1005 ft 1 kts 266°
2026-05-07 04:03 33.64121 -84.43140 1005 ft 2 kts 233°
2026-05-07 04:04 33.64131 -84.43132 1005 ft 2 kts 203°
2026-05-07 04:04 33.64142 -84.43130 1005 ft 2 kts 178°
2026-05-07 04:04 33.64151 -84.43130 1005 ft 0 kts 178°
2026-05-07 04:06 33.64145 -84.43130 1005 ft 2 kts 178°
2026-05-07 04:06 33.64117 -84.43130 1005 ft 6 kts 180°
2026-05-07 04:07 33.64070 -84.43130 1005 ft 7 kts 180°
2026-05-07 04:07 33.64018 -84.43129 1005 ft 8 kts 180°
2026-05-07 04:07 33.63962 -84.43129 1004 ft 8 kts 180°
2026-05-07 04:07 33.63900 -84.43129 1004 ft 9 kts 180°
2026-05-07 04:08 33.63835 -84.43130 1004 ft 10 kts 180°
2026-05-07 04:08 33.63766 -84.43130 1004 ft 10 kts 180°
2026-05-07 04:08 33.63695 -84.43125 1004 ft 10 kts 156°
2026-05-07 04:08 33.63664 -84.43058 1004 ft 10 kts 92°
2026-05-07 04:09 33.63663 -84.42973 1004 ft 10 kts 90°
2026-05-07 04:09 33.63663 -84.42884 1004 ft 11 kts 90°
2026-05-07 04:09 33.63663 -84.42792 1004 ft 11 kts 91°
2026-05-07 04:09 33.63655 -84.42699 1005 ft 11 kts 90°
2026-05-07 04:10 33.63654 -84.42605 1005 ft 12 kts 90°
2026-05-07 04:10 33.63654 -84.42506 1005 ft 12 kts 90°
2026-05-07 04:10 33.63654 -84.42401 1005 ft 13 kts 90°
2026-05-07 04:10 33.63655 -84.42293 1005 ft 13 kts 89°
2026-05-07 04:11 33.63645 -84.42184 1005 ft 13 kts 114°
2026-05-07 04:11 33.63599 -84.42085 1005 ft 14 kts 120°
2026-05-07 04:11 33.63581 -84.41975 1005 ft 14 kts 90°
2026-05-07 04:11 33.63581 -84.41856 1004 ft 15 kts 90°
2026-05-07 04:12 33.63581 -84.41732 1004 ft 15 kts 90°
2026-05-07 04:12 33.63581 -84.41645 1004 ft 16 kts 90°
2026-05-07 04:12 33.63580 -84.41468 1003 ft 16 kts 90°
2026-05-07 04:12 33.63581 -84.41329 1004 ft 17 kts 89°
2026-05-07 04:13 33.63581 -84.41191 1004 ft 17 kts 90°
2026-05-07 04:13 33.63581 -84.41097 1004 ft 17 kts 90°
2026-05-07 04:13 33.63580 -84.40967 1004 ft 13 kts 90°
2026-05-07 04:13 33.63536 -84.40908 1005 ft 10 kts 181°
2026-05-07 04:14 33.63478 -84.40916 1005 ft 3 kts 217°
2026-05-07 04:14 33.63472 -84.40945 1005 ft 7 kts 270°
2026-05-07 04:14 33.63473 -84.41009 1005 ft 9 kts 270°
2026-05-07 04:14 33.63472 -84.41193 1003 ft 48 kts 269°
2026-05-07 04:15 33.63471 -84.41842 1005 ft 105 kts 270°
2026-05-07 04:15 33.63472 -84.42905 1006 ft 148 kts 270°
2026-05-07 04:15 33.63477 -84.44223 1236 ft 165 kts 275°
2026-05-07 04:15 33.63505 -84.45647 1654 ft 178 kts 267°
2026-05-07 04:16 33.63530 -84.47172 2014 ft 185 kts 249°
2026-05-07 04:16 33.63015 -84.48578 2436 ft 187 kts 238°
2026-05-07 04:16 33.62408 -84.49982 2924 ft 196 kts 238°
2026-05-07 04:16 33.61774 -84.51500 3436 ft 212 kts 240°
2026-05-07 04:17 33.61093 -84.53135 3950 ft 226 kts 239°
2026-05-07 04:17 33.60356 -84.54855 4468 ft 238 kts 240°
2026-05-07 04:17 33.59571 -84.56651 5284 ft 244 kts 240°
2026-05-07 04:17 33.58707 -84.58381 6391 ft 244 kts 230°
2026-05-07 04:18 33.57202 -84.59296 7284 ft 261 kts 195°
2026-05-07 04:18 33.55333 -84.59002 8065 ft 279 kts 170°
2026-05-07 04:18 33.53445 -84.58715 8863 ft 271 kts 191°
2026-05-07 04:18 33.51568 -84.58800 9881 ft 274 kts 186°
2026-05-07 04:19 33.49635 -84.58710 10642 ft 282 kts 183°
2026-05-07 04:19 33.47698 -84.58009 11387 ft 307 kts 154°
2026-05-07 04:19 33.46178 -84.56099 12130 ft 331 kts 124°
2026-05-07 04:19 33.45473 -84.53424 12893 ft 344 kts 99°
2026-05-07 04:20 33.45366 -84.50531 13321 ft 363 kts 90°
2026-05-07 04:20 33.45454 -84.47439 13717 ft 381 kts 88°
2026-05-07 04:20 33.45584 -84.44204 14132 ft 396 kts 88°
2026-05-07 04:21 33.45672 -84.37502 15401 ft 407 kts 91°
2026-05-07 04:21 33.45635 -84.34087 16110 ft 412 kts 91°
2026-05-07 04:21 33.45706 -84.30642 16627 ft 421 kts 86°
2026-05-07 04:21 33.45997 -84.27135 16842 ft 424 kts 83°
2026-05-07 04:22 33.46358 -84.23683 16942 ft 426 kts 82°
2026-05-07 04:22 33.46705 -84.20148 16980 ft 429 kts 84°
2026-05-07 04:22 33.46989 -84.16615 16992 ft 430 kts 85°
2026-05-07 04:22 33.47263 -84.13034 16995 ft 432 kts 84°
2026-05-07 04:23 33.47542 -84.09442 16993 ft 434 kts 84°
2026-05-07 04:23 33.47822 -84.05847 16971 ft 434 kts 84°
2026-05-07 04:23 33.48104 -84.02239 16976 ft 435 kts 84°
2026-05-07 04:23 33.48385 -83.98638 16981 ft 435 kts 84°
2026-05-07 04:24 33.48665 -83.95025 16981 ft 436 kts 84°
2026-05-07 04:24 33.48944 -83.91409 16984 ft 436 kts 84°
2026-05-07 04:24 33.49219 -83.87792 16976 ft 436 kts 84°
2026-05-07 04:24 33.49497 -83.84176 16979 ft 436 kts 84°
2026-05-07 04:25 33.49775 -83.80557 16979 ft 435 kts 84°
2026-05-07 04:25 33.50049 -83.76950 16978 ft 435 kts 84°
2026-05-07 04:25 33.50320 -83.73340 16978 ft 435 kts 84°
2026-05-07 04:25 33.50598 -83.69723 16976 ft 435 kts 85°
2026-05-07 04:26 33.50871 -83.66115 16981 ft 435 kts 84°
2026-05-07 04:26 33.51182 -83.62504 16980 ft 435 kts 83°
2026-05-07 04:26 33.51590 -83.58917 16981 ft 434 kts 80°
2026-05-07 04:26 33.52100 -83.55350 16979 ft 434 kts 78°
2026-05-07 04:27 33.52633 -83.51782 16965 ft 435 kts 79°
2026-05-07 04:27 33.53168 -83.48207 16969 ft 436 kts 79°
2026-05-07 04:27 33.53662 -83.44614 16971 ft 436 kts 80°
2026-05-07 04:27 33.54142 -83.41070 16983 ft 437 kts 80°
2026-05-07 04:28 33.54627 -83.37472 16986 ft 437 kts 79°
2026-05-07 04:28 33.55109 -83.33883 16986 ft 438 kts 80°
2026-05-07 04:28 33.55594 -83.30282 16986 ft 438 kts 80°
2026-05-07 04:28 33.56080 -83.26674 16994 ft 438 kts 80°
2026-05-07 04:29 33.56558 -83.23070 16996 ft 438 kts 80°
2026-05-07 04:29 33.57042 -83.19462 16993 ft 438 kts 80°
2026-05-07 04:29 33.57525 -83.15851 16990 ft 439 kts 80°
2026-05-07 04:29 33.58002 -83.12231 16987 ft 439 kts 81°
2026-05-07 04:30 33.58479 -83.08616 16987 ft 439 kts 81°
2026-05-07 04:30 33.58956 -83.04989 16985 ft 440 kts 81°
2026-05-07 04:30 33.59435 -83.01366 16985 ft 440 kts 81°
2026-05-07 04:30 33.59914 -82.97740 16984 ft 440 kts 81°
2026-05-07 04:31 33.60392 -82.94114 16993 ft 441 kts 81°
2026-05-07 04:31 33.60866 -82.90478 16993 ft 441 kts 81°
2026-05-07 04:31 33.61344 -82.86845 16989 ft 441 kts 81°
2026-05-07 04:31 33.61811 -82.83221 16985 ft 441 kts 81°
2026-05-07 04:32 33.62288 -82.79590 17002 ft 441 kts 81°
2026-05-07 04:32 33.62760 -82.75957 17008 ft 441 kts 81°
2026-05-07 04:32 33.63230 -82.72314 17013 ft 441 kts 81°
2026-05-07 04:32 33.63702 -82.68676 17019 ft 441 kts 81°
2026-05-07 04:33 33.64172 -82.65035 17024 ft 442 kts 81°
2026-05-07 04:33 33.64640 -82.61394 17026 ft 442 kts 81°
2026-05-07 04:33 33.65106 -82.57750 17030 ft 442 kts 81°
2026-05-07 04:33 33.65569 -82.54156 17033 ft 442 kts 81°
2026-05-07 04:34 33.66032 -82.50514 17031 ft 442 kts 81°
2026-05-07 04:34 33.66502 -82.46823 16964 ft 442 kts 81°
2026-05-07 04:34 33.66967 -82.43178 16961 ft 442 kts 81°
2026-05-07 04:34 33.67430 -82.39532 16953 ft 442 kts 81°
2026-05-07 04:35 33.67875 -82.35926 16954 ft 442 kts 81°
2026-05-07 04:35 33.68317 -82.32274 16959 ft 442 kts 81°
2026-05-07 04:35 33.68767 -82.28616 16963 ft 442 kts 81°
2026-05-07 04:35 33.69224 -82.24965 16964 ft 443 kts 80°
2026-05-07 04:36 33.69688 -82.21312 16964 ft 443 kts 81°
2026-05-07 04:36 33.70150 -82.17654 16967 ft 443 kts 81°
2026-05-07 04:36 33.70605 -82.14003 16849 ft 440 kts 81°
2026-05-07 04:36 33.71058 -82.10395 16356 ft 434 kts 81°
2026-05-07 04:37 33.71502 -82.06827 15865 ft 429 kts 82°
2026-05-07 04:37 33.71938 -82.03295 15369 ft 425 kts 82°
2026-05-07 04:37 33.72364 -81.99800 14896 ft 421 kts 83°
2026-05-07 04:37 33.72785 -81.96336 14447 ft 417 kts 83°
2026-05-07 04:38 33.73199 -81.92939 14003 ft 413 kts 84°
2026-05-07 04:38 33.73613 -81.89536 13521 ft 409 kts 84°
2026-05-07 04:38 33.74021 -81.86168 13025 ft 405 kts 83°
2026-05-07 04:38 33.74478 -81.82847 12524 ft 401 kts 82°
2026-05-07 04:39 33.74973 -81.79564 12028 ft 397 kts 82°
2026-05-07 04:39 33.75453 -81.76318 11497 ft 393 kts 82°
2026-05-07 04:39 33.75922 -81.73119 11206 ft 383 kts 82°
2026-05-07 04:39 33.76379 -81.70011 11074 ft 376 kts 82°
2026-05-07 04:40 33.76831 -81.66909 11023 ft 375 kts 82°
2026-05-07 04:40 33.77268 -81.63916 10990 ft 373 kts 81°
2026-05-07 04:40 33.77716 -81.60857 10967 ft 370 kts 81°
2026-05-07 04:40 33.78166 -81.57809 10970 ft 368 kts 81°
2026-05-07 04:41 33.78609 -81.54786 10980 ft 366 kts 81°
2026-05-07 04:41 33.79045 -81.51780 10975 ft 365 kts 81°
2026-05-07 04:41 33.79484 -81.48781 10958 ft 363 kts 81°
2026-05-07 04:41 33.79919 -81.45794 10967 ft 362 kts 81°
2026-05-07 04:42 33.80348 -81.42815 10978 ft 361 kts 82°
2026-05-07 04:42 33.80763 -81.39873 10978 ft 361 kts 82°
2026-05-07 04:42 33.81117 -81.36891 10977 ft 360 kts 86°
2026-05-07 04:42 33.81354 -81.33897 10982 ft 359 kts 87°
2026-05-07 04:43 33.81563 -81.30969 10812 ft 348 kts 87°
2026-05-07 04:43 33.81757 -81.28065 10308 ft 347 kts 87°
2026-05-07 04:43 33.81924 -81.25213 9802 ft 336 kts 87°
2026-05-07 04:43 33.82073 -81.22445 9246 ft 328 kts 87°
2026-05-07 04:44 33.82227 -81.19736 8717 ft 321 kts 88°
2026-05-07 04:44 33.82387 -81.17091 8187 ft 314 kts 88°
2026-05-07 04:44 33.82559 -81.14501 7670 ft 308 kts 88°
2026-05-07 04:44 33.82746 -81.11958 7159 ft 302 kts 88°
2026-05-07 04:45 33.82945 -81.09467 6660 ft 297 kts 88°
2026-05-07 04:45 33.83001 -81.07027 6129 ft 289 kts 102°
2026-05-07 04:45 33.82713 -81.04635 5618 ft 290 kts 104°
2026-05-07 04:45 33.82382 -81.02266 5154 ft 291 kts 103°
2026-05-07 04:46 33.82052 -80.99857 4706 ft 292 kts 104°
2026-05-07 04:46 33.81694 -80.97450 4225 ft 293 kts 104°
2026-05-07 04:46 33.81336 -80.95064 3763 ft 285 kts 104°
2026-05-07 04:46 33.81020 -80.92743 3305 ft 279 kts 96°
2026-05-07 04:47 33.81415 -80.90498 2964 ft 275 kts 62°
2026-05-07 04:47 33.82663 -80.88820 2607 ft 267 kts 36°
2026-05-07 04:47 33.84247 -80.87789 2326 ft 252 kts
2026-05-07 04:47 33.85903 -80.87411 2180 ft 233 kts
2026-05-07 04:48 33.87441 -80.87265 2112 ft 210 kts 342°
2026-05-07 04:48 33.88575 -80.88118 2068 ft 186 kts 298°
2026-05-07 04:48 33.89295 -80.89377 2083 ft 180 kts 292°
2026-05-07 04:48 33.89576 -80.90771 2072 ft 170 kts 271°
2026-05-07 04:49 33.89661 -80.91520 2068 ft 174 kts 275°
2026-05-07 04:49 33.89875 -80.93011 2118 ft 184 kts 278°
2026-05-07 04:49 33.90184 -80.94546 2136 ft 193 kts 281°
2026-05-07 04:49 33.90533 -80.96141 2170 ft 201 kts 285°
2026-05-07 04:50 33.90938 -80.97739 2234 ft 199 kts 280°
2026-05-07 04:50 33.91257 -80.99303 2215 ft 185 kts 279°
2026-05-07 04:50 33.91572 -81.00750 2015 ft 173 kts 282°
2026-05-07 04:50 33.91873 -81.02126 1742 ft 167 kts 283°
2026-05-07 04:51 33.92173 -81.03444 1485 ft 159 kts 281°
2026-05-07 04:51 33.92449 -81.04686 1318 ft 149 kts 281°
2026-05-07 04:51 33.92701 -81.05915 1184 ft 154 kts 283°
2026-05-07 04:51 33.92968 -81.07166 912 ft 152 kts 284°
2026-05-07 04:52 33.93225 -81.08370 676 ft 145 kts 285°
2026-05-07 04:52 33.93474 -81.09514 489 ft 138 kts 285°
2026-05-07 04:52 33.93734 -81.10615 354 ft 139 kts 285°
2026-05-07 04:52 33.93963 -81.11694 227 ft 116 kts 284°
2026-05-07 04:53 33.94118 -81.12336 227 ft 37 kts 303°
2026-05-07 04:53 33.94279 -81.12554 227 ft 34 kts 316°
2026-05-07 04:53 33.94392 -81.12748 228 ft 17 kts 291°
2026-05-07 04:53 33.94420 -81.12783 227 ft 1 kts 358°
2026-05-07 04:54 33.94462 -81.12765 227 ft 8 kts 19°
2026-05-07 04:54 33.94520 -81.12740 227 ft 10 kts 19°
2026-05-07 04:54 33.94545 -81.12681 227 ft 9 kts 110°
2026-05-07 04:54 33.94529 -81.12640 227 ft 1 kts 115°
2026-05-07 04:55 33.94528 -81.12636 227 ft 0 kts 116°